Home   Weather   Vista   Past weeks

Flag for USA Past Weather in Vista, California, USA — Yesterday and Last 2 Weeks

Now
64 °F

Clear.


Feels Like: 64 °F
Forecast: 56 / 73 °F
Wind: 7 mph from Southwest

Location: McClellan-Palomar Airport

Current Time: Apr 26, 2017 at 8:37:12 pm

Latest Report: Apr 26, 2017 at 7:53 pm


Visibility: 10 mi

Pressure: 29.85 "Hg

Humidity: 75%

Dew Point: 56 °F

Location of VistaLocation

Past Weather in Vista — Graph

°F

Vista Temperature Yesterday

Maximum temperature yesterday: 67 °F (at 12:53 pm)
Minimum temperature yesterday: 59 °F (at 2:53 am)
Average temperature yesterday: 62 °F

High & Low Weather Summary for the Past Weeks

 TemperatureHumidityPressure
High80 °F (Apr 22, 1:53 pm)100% (Apr 17, 10:03 pm)30.13 "Hg (Apr 17, 10:03 pm)
Low51 °F (Apr 14, 5:53 am)35% (Apr 22, 2:53 pm)29.82 "Hg (Apr 23, 4:53 am)
Average62 °F78%29.98 "Hg
* Reported Apr 11 5:53 pm — Apr 26 5:53 pm, Vista, Weather by CustomWeather, © 2017

Note: Actual official high and low records may vary slightly from our data, if they occured in-between our weather recording intervals... More about our weather records

Advertising

Vista Weather History for the Previous 24 Hours

Scroll right to see more
 ConditionsComfort  
Time TempWeatherWind HumidityBarometerVisibility
5:53 pm
Wed, Apr 26
66 °FSunny.5 mph70%29.86 "Hg10 mi
4:53 pm67 °FSunny.12 mph71%29.85 "Hg10 mi
3:53 pm68 °FSunny.8 mph59%29.86 "Hg10 mi
2:53 pm70 °FSunny.9 mph55%29.88 "Hg10 mi
1:53 pm68 °FSunny.7 mph61%29.89 "Hg10 mi
12:53 pm68 °FSunny.13 mph63%29.90 "Hg10 mi
11:53 am68 °FSunny.9 mph59%29.91 "Hg10 mi
10:53 am66 °FSunny.8 mph65%29.92 "Hg10 mi
9:53 am66 °FSunny.5 mph63%29.91 "Hg10 mi
8:53 am65 °FSunny.No wind68%29.90 "Hg10 mi
7:53 am60 °FSunny.No wind72%29.89 "Hg10 mi
6:53 am57 °FSunny.No wind74%29.87 "Hg10 mi
5:53 am55 °FClear.No wind80%29.86 "Hg10 mi
4:53 am56 °FClear.No wind77%29.87 "Hg10 mi
3:53 am57 °FClear.3 mph78%29.88 "Hg10 mi
2:53 am57 °FClear.No wind78%29.87 "Hg10 mi
1:53 am57 °FClear.No wind81%29.89 "Hg10 mi
12:53 am59 °FClear.No wind75%29.90 "Hg10 mi
11:53 pm
Tue, Apr 25
60 °FClear.No wind75%29.91 "Hg10 mi
10:53 pm61 °FClear.No wind72%29.91 "Hg10 mi
9:53 pm61 °FClear.No wind72%29.91 "Hg10 mi
8:53 pm62 °FClear.No wind73%29.91 "Hg10 mi
Weather by CustomWeather, © 2017

See weather overviewHow to use our weather pages